Flag for Canada Weather past 2 weeks in Kawartha Lakes, Ontario, Canada

Now
76 °F

Mild.


Feels Like: 78 °F
Forecast: 58 / 83 °F
Wind: 1 mph from Southwest

Location: Lagoon City

Current Time: Jul 22, 2014 at 4:01:16 PM

Latest Report: Jul 22, 2014 at 12:00 PM


Visibility: N/A

Pressure: 30.06 "Hg

Humidity: 63%

Dew point: 63 °F

Location of Kawartha LakesLocation

Historic Weather in Kawartha Lakes — Graph

°F

Kawartha Lakes temperature yesterday

Maximum temperature yesterday: 77 °F (at 6:00 PM)
Minimum temperature yesterday: 65 °F (at 7:00 AM)
Average temperature yesterday: 71 °F

Past Weeks' High & Low Weather Summary

 TemperatureHumidityPressure
High77 °F (Jul 21, 6:00 PM)98% (Jul 20, 3:00 AM)30.24 "Hg (Jul 20, 3:00 AM)
Low52 °F (Jul 18, 5:00 AM)31% (Jul 18, 7:00 PM)29.44 "Hg (Jul 8, 5:00 PM)
Average66 °F72%29.95 "Hg
* Reported Jul 7 12:00 Noon — Jul 22 12:00 Noon, Kawartha Lakes, Weather by CustomWeather, © 2014

Note: Actual official high and low records may vary slightly from our data, if they occured in-between our weather recording intervals... More about our weather records

Advertising

Kawartha Lakes weather history for previous 24 hours

 ConditionsComfort  
Time TempWeatherWind HumidityBarometerVisibility
12:00 PM
Jul 22
76 °FMild.1 mph63%30.06 "HgN/A
11:00 AM73 °FMild.6 mph74%30.07 "HgN/A
10:00 AM71 °FMild.9 mph76%30.09 "HgN/A
9:00 AM70 °FMild.6 mph78%30.10 "HgN/A
8:00 AM69 °FMild.6 mph82%30.10 "HgN/A
7:00 AM70 °FMild.6 mph79%30.09 "HgN/A
6:00 AM69 °FMild.7 mph86%30.08 "HgN/A
5:00 AM70 °FMild.6 mph83%30.08 "HgN/A
4:00 AM71 °FMild.6 mph82%30.08 "HgN/A
3:00 AM71 °FMild.7 mph77%30.08 "HgN/A
2:00 AM70 °FMild.2 mph85%30.08 "HgN/A
1:00 AM70 °FMild.1 mph88%30.09 "HgN/A
12:00 AM69 °FMild.No wind88%30.10 "HgN/A
11:00 PM
Jul 21
71 °FMild.No wind87%30.10 "HgN/A
10:00 PM71 °FMild.No wind87%30.10 "HgN/A
9:00 PM76 °FMild.1 mph76%30.09 "HgN/A
8:00 PM77 °FWarm.2 mph72%30.09 "HgN/A
7:00 PM77 °FMild.5 mph72%30.09 "HgN/A
6:00 PM77 °FWarm.5 mph65%30.09 "HgN/A
5:00 PM77 °FWarm.5 mph64%30.09 "HgN/A
4:00 PM76 °FMild.6 mph66%30.11 "HgN/A
Weather by CustomWeather, © 2014

See weather overviewHow to use our weather pages